FW6120 Weather Reports


time (UTC)temp
F
wind
direction
speed
knots
gust
knots
rain 1hr
in
rain 24hr
in
rain mn
in
humidity
%
barometer
mb
20260505184801 60 317 3.5 6.1 0.00 0.00 0.00 82 1017.4
20260505184259 60 267 2.6 3.5 0.00 0.00 0.00 80 1017.1
20260505183802 59 259 1.7 3.5 0.00 0.00 0.00 79 1017.3
20260505183258 59 212 3.5 5.2 0.00 0.00 0.00 80 1017.3
20260505182801 59 222 1.7 5.2 0.00 0.00 0.00 79 1017.2
20260505182258 59 219 1.7 5.2 0.00 0.00 0.00 78 1017.3
20260505181800 59 226 2.6 5.2 0.00 0.00 0.00 80 1017.0
20260505181542 59 258 1.7 5.2 0.00 0.00 0.00 79 1017.0
20260505180801 59 222 3.5 6.1 0.00 0.00 0.00 80 1017.2
20260505180258 58 240 4.3 6.1 0.00 0.00 0.00 81 1017.2
20260505175758 58 259 0.0 5.2 0.00 0.00 0.00 78 1017.2
20260505175258 58 247 0.0 7.0 0.00 0.00 0.00 85 1017.0
20260505174801 58 221 2.6 7.0 0.00 0.00 0.00 82 1017.2
20260505174258 57 263 1.7 5.2 0.00 0.00 0.00 85 1017.3
20260505173758 57 225 1.7 3.5 0.00 0.00 0.00 82 1017.2
20260505173605 57 220 0.0 3.5 0.00 0.00 0.00 82 1016.9
20260505172758 56 220 0.9 2.6 0.00 0.00 0.00 84 1016.9
20260505172301 56 234 0.9 3.5 0.00 0.00 0.00 85 1016.9
20260505171757 56 254 0.9 3.5 0.00 0.00 0.00 87 1017.0
20260505171430 56 212 2.6 5.2 0.00 0.00 0.00 87 1016.8
20260505170258 55 250 0.9 5.2 0.00 0.00 0.00 89 1016.9
20260505165757 55 255 1.7 5.2 0.00 0.00 0.00 89 1016.9
20260505165258 55 234 1.7 5.2 0.00 0.00 0.00 88 1016.8
20260505165108 55 267 3.5 5.2 0.00 0.00 0.00 89 1016.8
20260505164606 55 242 0.9 3.5 0.00 0.00 0.00 89 1016.7
20260505164107 55 232 1.7 5.2 0.00 0.00 0.00 89 1016.8
20260505163258 55 174 1.7 5.2 0.00 0.00 0.00 90 1016.8
20260505162800 55 268 0.9 5.2 0.00 0.00 0.00 90 1016.7
20260505162259 55 271 3.5 5.2 0.00 0.00 0.00 89 1016.6
20260505161800 55 235 0.0 3.5 0.00 0.00 0.00 89 1016.7
20260505161258 55 216 2.6 3.5 0.00 0.00 0.00 89 1016.5
20260505161152 55 225 1.7 3.5 0.00 0.00 0.00 89 1016.6
20260505160613 55 180 1.7 3.5 0.00 0.00 0.00 89 1016.4
20260505153258 54 225 1.7 3.5 0.00 0.00 0.00 92 1016.3
20260505152758 54 229 1.7 3.5 0.00 0.00 0.00 91 1016.5
20260505152258 53 250 0.9 2.6 0.00 0.00 0.00 92 1016.5
20260505151801 53 261 0.9 3.5 0.00 0.00 0.00 92 1016.5
20260505151258 53 267 1.7 3.5 0.00 0.00 0.00 92 1016.4
20260505150758 53 238 1.7 5.2 0.00 0.00 0.00 92 1016.4
20260505150306 54 260 1.7 5.2 0.00 0.00 0.00 92 1016.5
20260505140301 53 209 0.0 0.9 0.00 0.00 0.00 96 1015.9
20260505140131 53 209 0.0 0.9 0.00 0.00 0.00 96 1015.8
20260505130134 52 210 0.0 0.0 0.00 0.00 0.00 96 1015.6
20260505124759 52 210 0.0 0.0 0.00 0.00 0.00 96 1015.4
20260505124611 52 210 0.0 0.0 0.00 0.00 0.00 95 1015.4
20260505123800 52 210 0.0 0.0 0.00 0.00 0.00 95 1015.3
20260505123301 52 210 0.0 0.0 0.00 0.00 0.00 95 1015.4
20260505123132 52 210 0.0 0.0 0.00 0.00 0.00 95 1015.5
20260505122305 52 210 0.0 0.0 0.00 0.00 0.00 95 1015.4
20260505121802 52 210 0.0 0.0 0.00 0.00 0.00 95 1015.4
20260505121300 52 165 0.0 0.0 0.00 0.00 0.00 94 1015.4
20260505120800 52 112 0.0 0.0 0.00 0.00 0.00 94 1015.3
20260505120614 52 112 0.0 0.0 0.00 0.00 0.00 94 1015.5
20260505115758 52 112 0.0 0.0 0.00 0.00 0.00 94 1015.4
20260505115258 52 112 0.0 0.0 0.00 0.00 0.00 94 1015.3
20260505114758 52 112 0.0 0.0 0.00 0.00 0.00 94 1015.3
20260505114259 52 112 0.0 0.9 0.00 0.00 0.00 93 1015.3
20260505113817 52 112 0.0 1.7 0.00 0.00 0.00 93 1015.6
20260505113258 52 112 0.9 1.7 0.00 0.00 0.00 93 1015.5
20260505112758 52 144 0.0 0.9 0.00 0.00 0.00 93 1015.2
20260505112258 52 145 0.0 0.9 0.00 0.00 0.00 93 1015.4
20260505111759 52 145 0.0 0.9 0.00 0.00 0.00 93 1015.5
20260505111258 52 145 0.0 0.9 0.00 0.00 0.00 93 1015.4
20260505110808 52 146 0.0 1.7 0.00 0.00 0.00 93 1015.2
20260505110258 52 146 0.9 1.7 0.00 0.00 0.00 93 1015.1
20260505101759 52 317 0.0 1.7 0.00 0.00 0.00 94 1014.9
20260505101259 52 286 0.0 0.9 0.00 0.00 0.00 94 1015.0
20260505100757 52 345 0.9 1.7 0.00 0.00 0.00 94 1014.9
20260505100630 52 345 0.0 1.7 0.00 0.00 0.00 94 1015.0
20260505095800 51 233 0.9 0.9 0.00 0.00 0.00 94 1014.9
20260505095258 51 232 0.0 0.9 0.00 0.00 0.00 94 1014.9
20260505094800 51 232 0.0 1.7 0.00 0.00 0.00 93 1014.9
20260505094301 52 233 0.0 1.7 0.00 0.00 0.00 94 1014.8
20260505093800 51 231 0.0 2.6 0.00 0.00 0.00 94 1014.5
20260505093301 51 232 0.9 5.2 0.00 0.00 0.00 94 1014.7
20260505092758 51 215 0.9 5.2 0.00 0.00 0.00 95 1014.8
20260505092257 51 231 2.6 6.1 0.00 0.00 0.00 95 1014.7
20260505091801 51 266 0.0 6.1 0.00 0.00 0.00 95 1014.7
20260505091258 51 259 0.9 3.5 0.00 0.00 0.00 95 1014.7
20260505090757 51 290 0.0 5.2 0.00 0.00 0.00 95 1014.6
20260505090258 51 257 1.7 5.2 0.00 0.00 0.00 96 1014.5
20260505090125 50 227 0.0 0.0 0.00 0.00 0.00 96 1014.5
20260505085257 50 227 0.0 0.0 0.00 0.00 0.00 96 1014.3
20260505084758 50 227 0.0 0.0 0.00 0.00 0.00 96 1014.2
20260505084259 49 228 0.0 0.0 0.00 0.00 0.00 94 1014.3
20260505083758 50 227 0.0 0.0 0.00 0.00 0.00 93 1014.1
20260505083300 50 227 0.0 0.9 0.00 0.00 0.00 94 1014.1
20260505082758 50 227 0.0 1.7 0.00 0.00 0.00 94 1014.1
20260505082258 50 227 0.0 1.7 0.00 0.00 0.00 95 1013.9
20260505081758 50 247 0.9 1.7 0.00 0.00 0.00 95 1014.0
20260505081259 50 137 0.0 1.7 0.00 0.00 0.00 94 1014.1
20260505080757 50 236 0.0 0.0 0.00 0.00 0.00 94 1013.9
20260505080652 50 236 0.0 0.0 0.00 0.00 0.00 94 1013.9
20260505075757 50 236 0.0 0.0 0.00 0.00 0.00 93 1013.8
20260505075611 50 235 0.0 0.9 0.00 0.00 0.00 92 1013.8
20260505075120 51 236 0.0 0.9 0.00 0.00 0.00 92 1013.8
20260505074302 51 236 0.0 1.7 0.00 0.00 0.00 93 1013.7
20260505073800 51 235 0.9 1.7 0.00 0.00 0.00 92 1013.6
20260505073301 51 240 0.0 1.7 0.00 0.00 0.00 92 1013.5
20260505073119 51 240 0.9 0.9 0.00 0.00 0.00 91 1013.5
20260505072305 52 240 0.0 0.0 0.00 0.00 0.00 89 1013.5
20260505072124 52 240 0.0 0.0 0.00 0.00 0.00 89 1013.5
20260505071301 53 240 0.0 0.0 0.00 0.00 0.00 89 1013.5
20260505070803 53 240 0.0 0.0 0.00 0.00 0.00 89 1013.2
20260505070301 53 240 0.0 0.0 0.00 0.00 0.00 88 1013.1
20260505065802 53 240 0.0 0.9 0.00 0.00 0.00 87 1013.0
20260505065304 54 240 0.0 2.6 0.00 0.00 0.00 87 1013.1
20260505064801 54 241 0.9 2.6 0.00 0.00 0.00 87 1013.1
20260505064305 54 236 0.0 0.0 0.00 0.00 0.00 88 1013.2
20260505063801 54 236 0.0 1.7 0.00 0.00 0.00 87 1012.9
20260505063302 54 236 0.0 2.6 0.00 0.00 0.00 88 1013.0
20260505062801 53 273 0.9 2.6 0.00 0.00 0.00 90 1012.7
20260505062304 53 183 0.0 0.0 0.00 0.00 0.00 89 1012.7
20260505061802 54 183 0.0 0.0 0.00 0.00 0.00 88 1012.6
20260505061304 54 184 0.0 0.0 0.00 0.00 0.00 87 1012.7
20260505060804 54 183 0.0 0.9 0.00 0.00 0.00 87 1012.6
20260505060713 54 186 0.0 1.7 0.00 0.00 0.00 87 1012.5
20260505060130 55 185 0.0 1.7 0.00 0.00 0.00 86 1012.5
20260505055305 55 211 0.9 1.7 0.00 0.00 0.00 86 1012.6
20260505054801 55 91 0.0 0.9 0.00 0.00 0.00 85 1012.7
20260505054301 55 91 0.0 1.7 0.00 0.00 0.00 85 1012.6
20260505053803 55 91 0.9 1.7 0.00 0.00 0.00 84 1012.3
20260505053312 56 91 0.0 0.9 0.00 0.00 0.00 84 1012.5
20260505052804 56 91 0.0 1.7 0.00 0.00 0.00 84 1012.4
20260505052305 56 91 0.0 2.6 0.00 0.00 0.00 84 1012.4
20260505051804 56 91 0.0 2.6 0.00 0.00 0.00 83 1012.4
20260505051306 56 94 0.0 1.7 0.00 0.00 0.00 83 1012.5
20260505050803 57 96 0.0 0.0 0.00 0.00 0.00 81 1012.1
20260505050302 57 96 0.0 0.9 0.00 0.00 0.00 81 1012.3
20260505041300 61 291 0.0 0.0 0.00 0.00 0.00 71 1012.0
20260505040801 62 291 0.0 0.0 0.00 0.00 0.00 70 1011.7
20260505040454 62 291 0.0 0.0 0.00 0.00 0.00 69 1011.7
20260505035304 63 291 0.0 0.9 0.00 0.00 0.00 65 1011.9
20260505034802 64 291 0.0 0.9 0.00 0.00 0.00 64 1011.7
20260505034303 64 291 0.0 0.9 0.00 0.00 0.00 64 1011.5
20260505033801 65 291 0.0 6.1 0.00 0.00 0.00 62 1011.4
20260505033611 65 292 1.7 6.1 0.00 0.00 0.00 61 1011.4
20260505032801 66 330 0.9 3.5 0.00 0.00 0.00 61 1011.4
20260505032301 66 330 0.9 3.5 0.00 0.00 0.00 60 1011.5
20260505031801 66 0 1.7 3.5 0.00 0.00 0.00 59 1011.2
20260505031302 67 302 0.9 5.2 0.00 0.00 0.00 58 1011.2
20260505031114 67 292 0.0 5.2 0.00 0.00 0.00 56 1011.2
20260505030302 68 307 0.0 5.2 0.00 0.00 0.00 56 1011.0
20260505025802 68 96 0.0 3.5 0.00 0.00 0.00 58 1011.1
20260505025304 69 228 0.0 3.5 0.00 0.00 0.00 56 1011.0
20260505024801 69 270 1.7 3.5 0.00 0.00 0.00 56 1010.9
20260505024300 69 271 0.0 5.2 0.00 0.00 0.00 58 1010.9
20260505023801 70 271 1.7 8.7 0.00 0.00 0.00 57 1010.8
20260505023302 70 273 0.0 8.7 0.00 0.00 0.00 58 1010.5
20260505022806 71 269 3.5 8.7 0.00 0.00 0.00 57 1010.7
20260505022309 71 252 1.7 8.7 0.00 0.00 0.00 58 1010.8
20260505021804 72 231 2.6 6.1 0.00 0.00 0.00 54 1010.7
20260505021303 73 229 3.5 6.1 0.00 0.00 0.00 55 1010.7
20260505020802 73 284 1.7 2.6 0.00 0.00 0.00 55 1010.7
20260505020306 73 284 0.0 3.5 0.00 0.00 0.00 57 1010.7
20260505015803 73 284 0.0 3.5 0.00 0.00 0.00 57 1010.7
20260505015303 73 256 0.9 7.8 0.00 0.00 0.00 58 1010.6
20260505014803 73 250 0.0 7.8 0.00 0.00 0.00 58 1010.7
20260505014301 73 229 1.7 6.1 0.00 0.00 0.00 57 1010.7
20260505013901 73 254 1.7 7.8 0.00 0.00 0.00 57 1010.8
20260505012804 73 244 4.3 8.7 0.00 0.00 0.00 56 1010.9
20260505012311 74 243 2.6 7.0 0.00 0.00 0.00 59 1010.7
20260505011805 73 216 3.5 7.0 0.00 0.00 0.00 57 1010.9
20260505011321 74 246 4.3 7.0 0.00 0.00 0.00 57 1010.9
20260505010803 74 257 1.7 7.8 0.00 0.00 0.00 57 1011.0
20260505010304 74 253 6.1 7.8 0.00 0.00 0.00 56 1010.9
20260505005803 74 233 2.6 7.8 0.00 0.00 0.00 56 1010.9
20260505005303 74 213 3.5 8.7 0.00 0.00 0.00 56 1011.0
20260505004823 74 295 4.3 7.8 0.00 0.00 0.00 56 1011.1
20260505004812 74 263 6.1 8.7 0.00 0.00 0.00 57 1011.2
20260505003305 74 257 4.3 7.0 0.00 0.00 0.00 57 1011.1
20260505002803 74 246 2.6 9.6 0.00 0.00 0.00 56 1011.1
20260505002305 74 227 0.9 9.6 0.00 0.00 0.00 56 1011.0
20260505001800 74 231 3.5 9.6 0.00 0.00 0.00 56 1011.2
20260505001311 74 278 3.5 7.8 0.00 0.00 0.00 56 1011.0
20260505000802 74 265 0.9 8.7 0.00 0.00 0.00 55 1011.1
20260505000302 74 219 4.3 9.6 0.00 0.00 0.00 56 1011.0
20260504235804 74 277 3.5 9.6 0.00 0.00 0.00 58 1011.1
20260504235305 74 188 1.7 12.2 0.00 0.00 0.00 56 1011.1
20260504234809 74 262 3.5 12.2 0.00 0.00 0.00 56 1011.0
20260504234626 74 201 8.7 9.6 0.00 0.00 0.00 55 1011.0
20260504233805 74 198 2.6 6.1 0.00 0.00 0.00 55 1011.3
20260504233301 74 203 2.6 7.8 0.00 0.00 0.00 57 1011.3
20260504232804 74 222 3.5 11.3 0.00 0.00 0.00 57 1011.1
20260504232303 73 270 4.3 11.3 0.00 0.00 0.00 57 1011.4
20260504231802 74 218 7.0 11.3 0.00 0.00 0.00 56 1011.3
20260504231301 73 181 2.6 11.3 0.00 0.00 0.00 56 1011.3
20260504230801 73 249 2.6 11.3 0.00 0.00 0.00 55 1011.4
20260504230616 73 213 4.3 11.3 0.00 0.00 0.00 57 1011.4
20260504225804 73 172 4.3 8.7 0.00 0.00 0.00 57 1011.4
20260504225304 73 220 4.3 8.7 0.00 0.00 0.00 59 1011.6
20260504224800 73 222 3.5 8.7 0.00 0.00 0.00 58 1011.4
20260504224304 73 214 3.5 8.7 0.00 0.00 0.00 57 1011.8
20260504224119 72 196 6.1 11.3 0.00 0.00 0.00 57 1011.9
20260504223302 73 189 6.1 11.3 0.00 0.00 0.00 56 1011.9
20260504222825 72 224 7.8 13.0 0.00 0.00 0.00 58 1011.8
20260504222302 72 214 4.3 13.0 0.00 0.00 0.00 58 1011.8
20260504222241 72 222 1.7 11.3 0.00 0.00 0.00 59 1011.8
20260504220801 71 201 4.3 9.6 0.00 0.00 0.00 60 1012.1
20260504220301 71 201 4.3 7.8 0.00 0.00 0.00 59 1012.3
20260504215807 72 198 2.6 8.7 0.00 0.00 0.00 58 1012.1
20260504215304 71 216 2.6 9.6 0.00 0.00 0.00 58 1012.2
20260504214802 71 301 2.6 9.6 0.00 0.00 0.00 58 1012.1
20260504214302 71 193 3.5 8.7 0.00 0.00 0.00 58 1012.2
20260504213801 70 201 7.0 8.7 0.00 0.00 0.00 61 1012.1
20260504213303 71 210 3.5 8.7 0.00 0.00 0.00 59 1012.3
20260504213114 71 168 3.5 8.7 0.00 0.00 0.00 59 1012.3
20260504212304 71 217 3.5 12.2 0.00 0.00 0.00 60 1012.4
20260504211801 71 223 6.1 12.2 0.00 0.00 0.00 59 1012.6
20260504211409 71 295 1.7 9.6 0.00 0.00 0.00 63 1012.6
20260504210314 70 218 6.1 7.8 0.00 0.00 0.00 61 1012.6
20260504205802 69 225 4.3 9.6 0.00 0.00 0.00 61 1012.9
20260504205301 69 289 5.2 9.6 0.00 0.00 0.00 63 1012.9
20260504204806 69 146 2.6 9.6 0.00 0.00 0.00 64 1013.0
20260504204302 68 261 7.0 9.6 0.00 0.00 0.00 64 1012.8
20260504203804 69 190 7.0 9.6 0.00 0.00 0.00 62 1013.0
20260504203301 68 236 5.2 11.3 0.00 0.00 0.00 63 1012.8
20260504203128 68 242 3.5 13.0 0.00 0.00 0.00 61 1013.4
20260504202705 68 310 3.5 13.0 0.00 0.00 0.00 64 1013.0
20260504202117 68 262 6.1 12.2 0.00 0.00 0.00 66 1013.2
20260504201302 68 253 5.2 12.2 0.00 0.00 0.00 65 1013.1
20260504200803 68 250 0.9 8.7 0.00 0.00 0.00 63 1012.9
20260504200306 68 223 5.2 8.7 0.00 0.00 0.00 65 1013.0
20260504200129 68 216 3.5 12.2 0.00 0.00 0.00 64 1013.2
20260504195301 67 236 2.6 12.2 0.00 0.00 0.00 65 1013.1
20260504194804 67 280 2.6 11.3 0.00 0.00 0.00 66 1013.2
20260504194301 66 253 0.9 9.6 0.00 0.00 0.00 67 1013.3
20260504193802 67 265 0.9 9.6 0.00 0.00 0.00 68 1013.3
20260504193301 67 260 3.5 11.3 0.00 0.00 0.00 64 1013.5
20260504192804 67 278 7.8 11.3 0.00 0.00 0.00 66 1013.2
20260504192301 67 240 2.6 8.7 0.00 0.00 0.00 68 1013.6
20260504191803 67 219 4.3 9.6 0.00 0.00 0.00 68 1013.3
20260504191619 67 235 4.3 9.6 0.00 0.00 0.00 65 1013.5
20260504190801 66 225 5.2 11.3 0.00 0.00 0.00 66 1013.5
20260504190302 67 243 5.2 11.3 0.00 0.00 0.00 65 1013.6
20260504185802 66 252 3.5 7.8 0.00 0.00 0.00 66 1013.7
20260504185653 66 242 0.9 7.0 0.00 0.00 0.00 67 1013.6